This demonstration page uses our WeatherBlox Daily Observations layout. Learn more.

40.92945, -100.16068

Hourly Observations for June 9, 2018

Temp ( °F °C ) Dew Point ( °F °C ) Humidity (%) Winds ( mph kmh ) Pressure ( in mb ) Visibility ( mi km ) Precip ( " mm )
12:15 am 00:15 Clear 76 24.5 67 19.7 75 75 ESE 8 13 29.85 1011 10 16.0934 0 0
12:35 am 00:35 Clear 76 24.4 67 19.5 74 74 SE 10 17 29.83 1010 10 16.0934 0 0
12:55 am 00:55 Clear 76 24.2 67 19.5 75 75 SE 10 17 29.8 1009 10 16.0934 0 0
1:15 am 01:15 Clear 76 24.5 66 19 72 72 SE 10 17 29.83 1010 10 16.0934 0 0
1:35 am 01:35 Partly Cloudy 75 23.8 64 17.7 69 69 N 31 50 29.91 1013 10 16.0934 0 0
1:55 am 01:55 Mostly Cloudy 69 20.5 56 13.5 64 64 NNE 29 46 29.94 1014 10 16.0934 0 0
2:15 am 02:15 Partly Cloudy 67 19.3 56 13.5 69 69 NE 23 37 29.97 1015 10 16.0934 0 0
2:35 am 02:35 Clear 66 18.7 57 13.8 73 73 NE 24 39 29.97 1015 10 16.0934 0 0
2:55 am 02:55 Clear 65 18.2 57 13.8 76 76 ENE 17 28 29.94 1014 10 16.0934 0 0
3:15 am 03:15 Clear 64 17.5 57 13.8 79 79 ENE 13 20 29.94 1014 10 16.0934 0 0
3:35 am 03:35 Clear 63 17.3 57 14 81 81 E 15 24 29.91 1013 10 16.0934 0 0
3:55 am 03:55 Clear 63 17.1 57 14 82 82 E 10 17 29.91 1013 10 16.0934 0 0
4:15 am 04:15 Clear 63 17 57 14.1 83 83 E 7 11 29.91 1013 10 16.0934 0 0
4:35 am 04:35 Clear 62 16.4 57 14 86 86 E 3 6 29.91 1013 10 16.0934 0 0
4:55 am 04:55 Clear 61 16.1 58 14.3 89 89 SSE 9 15 29.97 1015 10 16.0934 0 0
5:15 am 05:15 Clear 62 16.5 58 14.3 87 87 SSE 7 11 30 1016 10 16.0934 0 0
5:35 am 05:35 Clear 62 16.6 58 14.5 88 88 SE 9 15 30 1016 10 16.0934 0 0
5:55 am 05:55 Clear 62 16.8 58 14.3 85 85 SE 9 15 29.94 1014 10 16.0934 0 0
6:15 am 06:15 Sunny 62 16.9 58 14.5 86 86 ESE 9 15 29.94 1014 10 16.0934 0 0
6:35 am 06:35 Sunny 63 17 58 14.5 85 85 SSE 9 15 29.91 1013 10 16.0934 0 0
6:55 am 06:55 Sunny 62 16.7 58 14.7 88 88 SSE 7 11 29.91 1013 10 16.0934 0 0
7:15 am 07:15 Sunny 63 17.3 59 14.9 86 86 S 6 9 29.91 1013 10 16.0934 0 0
7:35 am 07:35 Sunny 64 18 59 15 83 83 ESE 5 7 29.91 1013 10 16.0934 0 0
7:55 am 07:55 Sunny 66 19.1 60 15.4 79 79 SSE 8 13 29.91 1013 10 16.0934 0 0
8:15 am 08:15 Sunny 70 20.9 61 16 74 74 SSE 14 22 29.88 1012 10 16.0934 0 0
8:35 am 08:35 Sunny 72 22 62 16.5 71 71 SSE 13 20 29.88 1012 10 16.0934 0 0
8:55 am 08:55 Sunny 73 23 62 16.8 68 68 SSE 10 17 29.88 1012 10 16.0934 0 0
9:15 am 09:15 Sunny 76 24.2 63 17.2 65 65 SSE 13 20 29.83 1010 10 16.0934 0 0
9:35 am 09:35 Sunny 77 25.2 65 18.2 65 65 S 15 24 29.85 1011 10 16.0934 0 0
9:55 am 09:55 Sunny 77 25 64 17.8 64 64 S 14 22 29.85 1011 10 16.0934 0 0
10:15 am 10:15 Sunny 77 24.8 64 17.8 65 65 S 18 30 29.85 1011 10 16.0934 0 0
10:35 am 10:35 Sunny 77 25 65 18.4 67 67 S 12 19 29.85 1011 10 16.0934 0 0
10:55 am 10:55 Sunny 78 25.5 65 18.6 66 66 S 5 7 29.85 1011 10 16.0934 0 0
11:15 am 11:15 Sunny 79 26.2 66 19.1 65 65 S 8 13 29.85 1011 10 16.0934 0 0
11:35 am 11:35 Sunny 80 26.7 67 19.3 64 64 S 7 11 29.8 1009 10 16.0934 0 0
11:55 am 11:55 Sunny 81 27.2 66 19.1 61 61 SSE 5 7 29.8 1009 10 16.0934 0 0
12:15 pm 12:15 Sunny 82 28 67 19.3 59 59 SE 3 6 29.8 1009 10 16.0934 0 0
12:35 pm 12:35 Sunny 83 28.6 68 20.1 60 60 SE 5 7 29.77 1008 10 16.0934 0 0
12:55 pm 12:55 Sunny 85 29.2 67 19.7 57 57 E 5 7 29.77 1008 10 16.0934 0 0
1:15 pm 13:15 Sunny 86 30.1 67 19.7 54 54 SE 6 9 29.74 1007 10 16.0934 0 0
1:35 pm 13:35 Sunny 87 30.5 68 20.1 54 54 SSE 9 15 29.74 1007 10 16.0934 0 0
1:55 pm 13:55 Sunny 88 31 68 20.2 53 53 SE 7 11 29.74 1007 10 16.0934 0 0
2:15 pm 14:15 Sunny 89 31.6 68 19.8 50 50 SE 7 11 29.71 1006 10 16.0934 0 0
2:35 pm 14:35 Sunny 89 31.8 67 19.5 48 48 ESE 7 11 29.71 1006 10 16.0934 0 0
2:55 pm 14:55 Sunny 90 32.3 66 18.8 45 45 SE 9 15 29.71 1006 10 16.0934 0 0
3:15 pm 15:15 Sunny 91 33 64 17.8 40 40 ESE 7 11 29.71 1006 10 16.0934 0 0
3:35 pm 15:35 Sunny 92 33.2 61 16.3 36 36 SSE 9 15 29.68 1005 10 16.0934 0 0
3:55 pm 15:55 Sunny 92 33.5 61 16 35 35 SE 10 17 29.65 1004 10 16.0934 0 0
4:15 pm 16:15 Sunny 92 33.5 64 17.5 38 38 SSE 9 15 29.65 1004 10 16.0934 0 0
4:35 pm 16:35 Sunny 92 33.5 63 17 37 37 SSE 9 15 29.65 1004 10 16.0934 0 0
4:55 pm 16:55 Sunny 92 33.2 64 17.5 39 39 SE 10 17 29.65 1004 10 16.0934 0 0
5:15 pm 17:15 Sunny 91 33 64 17.6 40 40 ESE 9 15 29.65 1004 10 16.0934 0 0
5:35 pm 17:35 Sunny 92 33.2 64 17.9 40 40 SE 10 17 29.62 1003 10 16.0934 0 0
5:55 pm 17:55 Sunny 91 33 63 17.3 39 39 E 10 17 29.62 1003 10 16.0934 0 0
6:15 pm 18:15 Sunny 91 32.7 64 17.8 41 41 ESE 10 17 29.62 1003 10 16.0934 0 0
6:35 pm 18:35 Sunny 91 32.6 63 17.1 39 39 ESE 10 17 29.62 1003 10 16.0934 0 0
6:55 pm 18:55 Sunny 90 32.4 62 16.9 39 39 ESE 9 15 29.62 1003 10 16.0934 0 0
7:15 pm 19:15 Sunny 90 32 61 16.3 39 39 ESE 10 17 29.65 1004 10 16.0934 0 0
7:35 pm 19:35 Sunny 89 31.7 61 16 39 39 E 13 20 29.62 1003 10 16.0934 0 0
7:55 pm 19:55 Sunny 88 31 62 16.8 42 42 E 8 13 29.62 1003 10 16.0934 0 0
8:15 pm 20:15 Sunny 85 29.7 65 18.3 50 50 ENE 14 22 29.62 1003 10 16.0934 0 0
8:35 pm 20:35 Sunny 83 28.6 72 22 68 68 E 13 20 29.62 1003 10 16.0934 0 0
8:55 pm 20:55 Partly Cloudy 83 28.6 70 21 64 64 E 13 20 29.62 1003 10 16.0934 0 0
9:15 pm 21:15 Mostly Cloudy 82 28 69 20.6 64 64 E 13 20 29.65 1004 10 16.0934 0 0
9:35 pm 21:35 Partly Cloudy 82 27.6 69 20.8 67 67 E 14 22 29.65 1004 10 16.0934 0 0
9:55 pm 21:55 Clear 81 27.1 70 21.2 70 70 E 10 17 29.65 1004 10 16.0934 0 0
10:15 pm 22:15 Clear 81 27 70 21.1 70 70 E 14 22 29.65 1004 10 16.0934 0 0
10:35 pm 22:35 Clear 80 26.6 70 21 71 71 E 17 28 29.65 1004 10 16.0934 0 0
10:55 pm 22:55 Clear 80 26.5 69 20.7 71 71 ESE 13 20 29.65 1004 10 16.0934 0 0
11:15 pm 23:15 Clear 80 26.5 67 19.5 65 65 ESE 13 20 29.65 1004 10 16.0934 0 0
11:35 pm 23:35 Clear 79 26.2 65 18.4 62 62 ESE 13 20 29.65 1004 10 16.0934 0 0
11:55 pm 23:55 Clear 78 25.6 65 18.2 64 64 ESE 12 19 29.62 1003 10 16.0934 0 0

Powered by AerisWeather